SDM721 ULAA-ULMK

Flight info

Callsign SDM721
Flight time 0h 47m
Altitude 34000
Route KOTID3J KOTID L93 SOTOR SOTOR4A
Aircraft A319/M-VGDW/C

Departure

Time 2026-04-26 09:49
Airport Talagi Airport (ULAA)

Arrival

Time 2026-04-26 10:36
Airport Kirovsk-Apatity Airport (ULMK)
Time Latitude Longitude Altitude Speed Heading
2026-04-26 09:29 64.59664 40.71389 40 ft 0 kts 186°
2026-04-26 09:34 64.59671 40.71390 40 ft 3 kts 186°
2026-04-26 09:34 64.59691 40.71395 38 ft 3 kts 186°
2026-04-26 09:35 64.59707 40.71398 38 ft 3 kts 205°
2026-04-26 09:35 64.59717 40.71421 39 ft 3 kts 262°
2026-04-26 09:35 64.59717 40.71465 40 ft 3 kts 276°
2026-04-26 09:35 64.59715 40.71507 40 ft 1 kts 276°
2026-04-26 09:39 64.59716 40.71498 40 ft 1 kts 276°
2026-04-26 09:39 64.59717 40.71470 40 ft 2 kts 276°
2026-04-26 09:40 64.59719 40.71428 40 ft 0 kts 276°
2026-04-26 09:40 64.59720 40.71415 40 ft 2 kts 276°
2026-04-26 09:40 64.59722 40.71373 40 ft 4 kts 276°
2026-04-26 09:40 64.59725 40.71302 40 ft 5 kts 276°
2026-04-26 09:41 64.59729 40.71204 40 ft 7 kts 276°
2026-04-26 09:41 64.59733 40.71120 40 ft 0 kts 278°
2026-04-26 09:41 64.59734 40.71115 40 ft 1 kts 278°
2026-04-26 09:42 64.59736 40.71084 40 ft 3 kts 278°
2026-04-26 09:42 64.59740 40.71027 40 ft 4 kts 285°
2026-04-26 09:42 64.59749 40.70949 40 ft 5 kts 276°
2026-04-26 09:42 64.59753 40.70850 40 ft 7 kts 275°
2026-04-26 09:43 64.59760 40.70722 40 ft 9 kts 278°
2026-04-26 09:43 64.59768 40.70562 40 ft 11 kts 276°
2026-04-26 09:43 64.59780 40.70382 40 ft 11 kts 297°
2026-04-26 09:43 64.59827 40.70237 38 ft 12 kts 279°
2026-04-26 09:44 64.59868 40.70161 40 ft 8 kts 346°
2026-04-26 09:44 64.59895 40.70049 40 ft 9 kts 276°
2026-04-26 09:44 64.59903 40.69886 40 ft 11 kts 278°
2026-04-26 09:44 64.59912 40.69693 40 ft 13 kts 274°
2026-04-26 09:45 64.59922 40.69469 40 ft 15 kts 277°
2026-04-26 09:45 64.59935 40.69211 40 ft 17 kts 276°
2026-04-26 09:45 64.59968 40.69034 40 ft 10 kts 346°
2026-04-26 09:45 64.60035 40.69046 40 ft 6 kts
2026-04-26 09:46 64.60039 40.69047 40 ft 0 kts
2026-04-26 09:47 64.60040 40.69047 40 ft 1 kts
2026-04-26 09:47 64.60051 40.69051 40 ft 2 kts
2026-04-26 09:47 64.60075 40.69057 40 ft 5 kts
2026-04-26 09:47 64.60131 40.69075 37 ft 11 kts 20°
2026-04-26 09:48 64.60149 40.69190 37 ft 0 kts 98°
2026-04-26 09:48 64.60147 40.69230 37 ft 20 kts 98°
2026-04-26 09:48 64.60094 40.70252 36 ft 104 kts 96°
2026-04-26 09:48 64.59989 40.72427 125 ft 155 kts 97°
2026-04-26 09:49 64.59846 40.74842 878 ft 148 kts 99°
2026-04-26 09:49 64.59713 40.77220 1611 ft 152 kts 96°
2026-04-26 09:49 64.60093 40.79662 1957 ft 181 kts 46°
2026-04-26 09:49 64.61336 40.80728 2276 ft 209 kts 357°
2026-04-26 09:50 64.62727 40.79292 2649 ft 235 kts 317°
2026-04-26 09:50 64.63889 40.76359 3252 ft 256 kts 308°
2026-04-26 09:50 64.65022 40.73067 4213 ft 262 kts 307°
2026-04-26 09:50 64.66191 40.69749 5251 ft 267 kts 308°
2026-04-26 09:51 64.67428 40.66465 6297 ft 271 kts 310°
2026-04-26 09:51 64.68725 40.63230 7349 ft 275 kts 311°
2026-04-26 09:51 64.70070 40.60023 8393 ft 278 kts 311°
2026-04-26 09:51 64.71445 40.56826 9442 ft 281 kts 311°
2026-04-26 09:52 64.72875 40.53540 10038 ft 298 kts 311°
2026-04-26 09:52 64.76003 40.46361 11264 ft 323 kts 313°
2026-04-26 09:52 64.77623 40.42661 12137 ft 327 kts 312°
2026-04-26 09:53 64.79255 40.38921 13015 ft 330 kts 312°
2026-04-26 09:53 64.80903 40.35132 13825 ft 333 kts 311°
2026-04-26 09:53 64.82565 40.31301 14590 ft 336 kts 311°
2026-04-26 09:53 64.84242 40.27434 15358 ft 339 kts 311°
2026-04-26 09:54 64.85912 40.23573 16101 ft 343 kts 311°
2026-04-26 09:54 64.87619 40.19620 16847 ft 346 kts 311°
2026-04-26 09:54 64.89339 40.15622 17604 ft 349 kts 311°
2026-04-26 09:54 64.91074 40.11584 18278 ft 353 kts 310°
2026-04-26 09:55 64.92826 40.07496 18930 ft 356 kts 310°
2026-04-26 09:55 64.94597 40.03358 19570 ft 360 kts 310°
2026-04-26 09:55 64.96386 39.99172 20206 ft 363 kts 310°
2026-04-26 09:55 64.98186 39.94953 20909 ft 365 kts 309°
2026-04-26 09:56 64.99996 39.90714 21607 ft 368 kts 309°
2026-04-26 09:56 65.01818 39.86432 22284 ft 371 kts 309°
2026-04-26 09:56 65.03649 39.82116 22973 ft 374 kts 309°
2026-04-26 09:56 65.05495 39.77742 23542 ft 377 kts 309°
2026-04-26 09:57 65.07359 39.73310 24032 ft 381 kts 309°
2026-04-26 09:57 65.09246 39.68811 24507 ft 385 kts 309°
2026-04-26 09:57 65.11145 39.64286 24972 ft 389 kts 309°
2026-04-26 09:57 65.13064 39.59699 25426 ft 393 kts 309°
2026-04-26 09:58 65.15001 39.55068 25871 ft 397 kts 310°
2026-04-26 09:58 65.16954 39.50399 26307 ft 400 kts 310°
2026-04-26 09:58 65.18927 39.45667 26738 ft 404 kts 310°
2026-04-26 09:58 65.20913 39.40892 27198 ft 408 kts 310°
2026-04-26 09:59 65.22915 39.36048 27600 ft 412 kts 310°
2026-04-26 09:59 65.24248 39.32813 27869 ft 414 kts 310°
2026-04-26 09:59 65.26946 39.26290 28390 ft 420 kts 311°
2026-04-26 09:59 65.29056 39.21408 28789 ft 424 kts 312°
2026-04-26 10:00 65.31219 39.16566 29177 ft 428 kts 313°
2026-04-26 10:00 65.33421 39.11719 29553 ft 432 kts 313°
2026-04-26 10:00 65.35644 39.06822 29876 ft 435 kts 313°
2026-04-26 10:00 65.37870 39.01872 30175 ft 438 kts 313°
2026-04-26 10:01 65.40103 38.96855 30460 ft 441 kts 313°
2026-04-26 10:01 65.42339 38.91791 30740 ft 443 kts 313°
2026-04-26 10:01 65.44581 38.86674 31016 ft 446 kts 313°
2026-04-26 10:01 65.46837 38.81502 31345 ft 447 kts 313°
2026-04-26 10:02 65.49064 38.76390 31723 ft 447 kts 313°
2026-04-26 10:02 65.51343 38.71141 32109 ft 447 kts 313°
2026-04-26 10:02 65.53562 38.66022 32473 ft 448 kts 313°
2026-04-26 10:02 65.55814 38.60825 32841 ft 448 kts 313°
2026-04-26 10:03 65.58065 38.55622 33205 ft 448 kts 313°
2026-04-26 10:03 65.60317 38.50409 33556 ft 449 kts 313°
2026-04-26 10:03 65.64780 38.40054 33654 ft 437 kts 313°
2026-04-26 10:04 65.69138 38.29887 33669 ft 433 kts 313°
2026-04-26 10:04 65.73461 38.19729 33660 ft 432 kts 313°
2026-04-26 10:05 65.77750 38.09622 33658 ft 432 kts 313°
2026-04-26 10:05 65.82057 37.99432 33658 ft 431 kts 313°
2026-04-26 10:06 65.86358 37.89210 33654 ft 431 kts 313°
2026-04-26 10:06 65.90653 37.78935 33659 ft 431 kts 313°
2026-04-26 10:07 65.94905 37.68709 33671 ft 430 kts 313°
2026-04-26 10:07 65.99169 37.58399 33664 ft 431 kts 313°
2026-04-26 10:08 66.03435 37.48060 33658 ft 431 kts 313°
2026-04-26 10:08 66.07690 37.37675 33654 ft 431 kts 313°
2026-04-26 10:09 66.11214 37.29029 33653 ft 431 kts 313°
2026-04-26 10:09 66.16169 37.16795 33653 ft 430 kts 312°
2026-04-26 10:10 66.20397 37.06295 33663 ft 431 kts 313°
2026-04-26 10:10 66.24599 36.95795 33657 ft 431 kts 313°
2026-04-26 10:11 66.28749 36.85081 33401 ft 427 kts 307°
2026-04-26 10:11 66.30571 36.79317 33134 ft 423 kts 306°
2026-04-26 10:11 66.32375 36.73582 32806 ft 418 kts 306°
2026-04-26 10:12 66.34162 36.67892 32309 ft 416 kts 306°
2026-04-26 10:12 66.35937 36.62237 31834 ft 414 kts 306°
2026-04-26 10:12 66.37702 36.56596 31357 ft 411 kts 306°
2026-04-26 10:12 66.39452 36.50973 30892 ft 409 kts 305°
2026-04-26 10:13 66.41193 36.45373 30412 ft 407 kts 305°
2026-04-26 10:13 66.42923 36.39801 29965 ft 405 kts 305°
2026-04-26 10:13 66.44641 36.34230 29449 ft 403 kts 305°
2026-04-26 10:13 66.46341 36.28703 29004 ft 398 kts 304°
2026-04-26 10:14 66.48015 36.23248 28569 ft 393 kts 304°
2026-04-26 10:14 66.49663 36.17811 28146 ft 388 kts 304°
2026-04-26 10:14 66.51276 36.12428 27734 ft 384 kts 303°
2026-04-26 10:14 66.52328 36.08892 27462 ft 381 kts 303°
2026-04-26 10:15 66.53901 36.03581 27045 ft 378 kts 303°
2026-04-26 10:15 66.55462 35.98316 26633 ft 374 kts 303°
2026-04-26 10:15 66.57009 35.93088 26209 ft 372 kts 303°
2026-04-26 10:15 66.58548 35.87892 25790 ft 369 kts 303°
2026-04-26 10:16 66.60072 35.82727 25392 ft 367 kts 303°
2026-04-26 10:16 66.61591 35.77573 24925 ft 366 kts 303°
2026-04-26 10:16 66.63097 35.72442 24559 ft 362 kts 303°
2026-04-26 10:16 66.64587 35.67357 24130 ft 360 kts 303°
2026-04-26 10:17 66.66061 35.62323 23849 ft 354 kts 303°
2026-04-26 10:17 66.67517 35.57349 23363 ft 349 kts 303°
2026-04-26 10:17 66.68950 35.52447 22691 ft 345 kts 303°
2026-04-26 10:17 66.70372 35.47577 22226 ft 343 kts 303°
2026-04-26 10:18 66.71774 35.42751 21805 ft 339 kts 303°
2026-04-26 10:18 66.73159 35.37961 21382 ft 336 kts 304°
2026-04-26 10:18 66.74528 35.33209 20974 ft 332 kts 304°
2026-04-26 10:18 66.75875 35.28510 20567 ft 328 kts 304°
2026-04-26 10:19 66.77211 35.23854 20167 ft 325 kts 304°
2026-04-26 10:19 66.78535 35.19241 19770 ft 322 kts 305°
2026-04-26 10:19 66.79842 35.14674 19378 ft 319 kts 305°
2026-04-26 10:19 66.81139 35.10135 18988 ft 316 kts 306°
2026-04-26 10:20 66.82428 35.05630 18604 ft 314 kts 307°
2026-04-26 10:20 66.83710 35.01147 18224 ft 313 kts 307°
2026-04-26 10:20 66.84981 34.96690 17828 ft 311 kts 307°
2026-04-26 10:20 66.86246 34.92239 17428 ft 309 kts 307°
2026-04-26 10:21 66.87495 34.87829 17053 ft 306 kts 307°
2026-04-26 10:21 66.88733 34.83448 16693 ft 304 kts 307°
2026-04-26 10:21 66.89959 34.79087 16334 ft 301 kts 307°
2026-04-26 10:21 66.91170 34.74767 15984 ft 299 kts 307°
2026-04-26 10:22 66.92377 34.70455 15629 ft 297 kts 307°
2026-04-26 10:22 66.93561 34.66219 15287 ft 296 kts 307°
2026-04-26 10:22 66.94753 34.61955 14938 ft 294 kts 307°
2026-04-26 10:22 66.95940 34.57708 14594 ft 293 kts 307°
2026-04-26 10:23 66.97122 34.53473 14241 ft 292 kts 307°
2026-04-26 10:23 66.98299 34.49248 13903 ft 291 kts 307°
2026-04-26 10:23 66.99471 34.45031 13562 ft 290 kts 307°
2026-04-26 10:23 67.00639 34.40817 13178 ft 289 kts 307°
2026-04-26 10:24 67.01796 34.36638 12837 ft 286 kts 307°
2026-04-26 10:24 67.02943 34.32489 12496 ft 284 kts 307°
2026-04-26 10:24 67.04077 34.28361 12147 ft 282 kts 307°
2026-04-26 10:24 67.05198 34.24270 11807 ft 280 kts 307°
2026-04-26 10:25 67.06315 34.20190 11458 ft 278 kts 307°
2026-04-26 10:25 67.07417 34.16159 11113 ft 276 kts 307°
2026-04-26 10:25 67.08518 34.12128 10769 ft 274 kts 307°
2026-04-26 10:25 67.09608 34.08132 10418 ft 272 kts 307°
2026-04-26 10:26 67.10688 34.04169 10064 ft 270 kts 307°
2026-04-26 10:26 67.11924 34.00601 9718 ft 265 kts 321°
2026-04-26 10:26 67.13455 33.97969 9306 ft 265 kts 335°
2026-04-26 10:26 67.15140 33.96044 8894 ft 264 kts 338°
2026-04-26 10:27 67.16788 33.94167 8504 ft 262 kts 337°
2026-04-26 10:27 67.18420 33.92289 8337 ft 251 kts 337°
2026-04-26 10:27 67.19982 33.90485 8202 ft 240 kts 337°
2026-04-26 10:27 67.21474 33.88757 8064 ft 230 kts 337°
2026-04-26 10:28 67.22905 33.87099 7913 ft 220 kts 338°
2026-04-26 10:28 67.24293 33.85511 7646 ft 216 kts 339°
2026-04-26 10:28 67.25743 33.84719 7328 ft 213 kts
2026-04-26 10:28 67.27169 33.85467 6897 ft 211 kts 24°
2026-04-26 10:29 67.28391 33.87596 6394 ft 212 kts 37°
2026-04-26 10:29 67.29538 33.89987 5907 ft 211 kts 37°
2026-04-26 10:29 67.30678 33.92345 5578 ft 206 kts 37°
2026-04-26 10:29 67.31774 33.94605 5472 ft 195 kts 36°
2026-04-26 10:30 67.32813 33.96630 5326 ft 183 kts 27°
2026-04-26 10:30 67.33990 33.97106 5173 ft 165 kts 349°
2026-04-26 10:30 67.34931 33.95697 5011 ft 154 kts 317°
2026-04-26 10:30 67.35568 33.93624 4874 ft 138 kts 314°
2026-04-26 10:31 67.36139 33.91753 4595 ft 130 kts 315°
2026-04-26 10:31 67.36700 33.89927 4220 ft 129 kts 315°
2026-04-26 10:31 67.37256 33.88123 3849 ft 127 kts 314°
2026-04-26 10:31 67.37810 33.86326 3456 ft 128 kts 314°
2026-04-26 10:32 67.38367 33.84518 3095 ft 128 kts 314°
2026-04-26 10:32 67.38918 33.82725 2716 ft 127 kts 314°
2026-04-26 10:32 67.39463 33.80949 2350 ft 125 kts 314°
2026-04-26 10:32 67.40002 33.79188 2009 ft 122 kts 314°
2026-04-26 10:33 67.40546 33.77416 1967 ft 131 kts 311°
2026-04-26 10:33 67.41119 33.75590 1934 ft 132 kts 311°
2026-04-26 10:33 67.41695 33.73766 1901 ft 130 kts 312°
2026-04-26 10:33 67.42258 33.71901 1632 ft 131 kts 310°
2026-04-26 10:34 67.42820 33.70036 1439 ft 131 kts 310°
2026-04-26 10:34 67.43371 33.68133 1290 ft 131 kts 308°
2026-04-26 10:34 67.43944 33.66267 1122 ft 132 kts 310°
2026-04-26 10:34 67.44497 33.64365 924 ft 131 kts 313°
2026-04-26 10:35 67.45070 33.62545 754 ft 129 kts 311°
2026-04-26 10:35 67.45621 33.60713 588 ft 126 kts 313°
2026-04-26 10:35 67.46128 33.59075 552 ft 100 kts 308°
2026-04-26 10:35 67.46448 33.58006 553 ft 50 kts 308°
2026-04-26 10:36 67.46564 33.57624 554 ft 13 kts 308°
2026-04-26 10:36 67.46629 33.57410 555 ft 17 kts 309°
2026-04-26 10:36 67.46720 33.57115 553 ft 24 kts 308°
2026-04-26 10:36 67.46839 33.56730 553 ft 30 kts 309°
2026-04-26 10:37 67.46948 33.56354 555 ft 10 kts 295°
2026-04-26 10:37 67.46930 33.56312 555 ft 6 kts 130°
2026-04-26 10:37 67.46897 33.56498 555 ft 16 kts 115°
2026-04-26 10:37 67.46808 33.56796 553 ft 26 kts 129°
2026-04-26 10:38 67.46679 33.57238 554 ft 35 kts 124°
2026-04-26 10:38 67.46515 33.57799 553 ft 42 kts 131°
2026-04-26 10:38 67.46334 33.58358 555 ft 36 kts 128°
2026-04-26 10:38 67.46225 33.58665 553 ft 8 kts 193°
2026-04-26 10:39 67.46165 33.58551 552 ft 14 kts 216°
2026-04-26 10:39 67.46100 33.58403 552 ft 14 kts 224°
2026-04-26 10:39 67.46069 33.58463 552 ft 8 kts 136°
2026-04-26 10:39 67.46010 33.58535 552 ft 11 kts 197°
2026-04-26 10:40 67.45989 33.58377 554 ft 9 kts 307°
2026-04-26 10:40 67.46003 33.58340 554 ft 0 kts 308°
2026-04-26 10:40 67.44613 33.63998 898 ft 130 kts 313°
2026-04-26 10:40 67.45176 33.62190 717 ft 129 kts 311°
2026-04-26 10:41 67.45727 33.60366 576 ft 126 kts 313°
2026-04-26 10:41 67.46208 33.58809 555 ft 90 kts 308°
2026-04-26 10:41 67.45042 33.62638 760 ft 129 kts 312°
2026-04-26 10:42 67.45596 33.60796 596 ft 127 kts 313°
2026-04-26 10:42 67.46107 33.59142 554 ft 102 kts 308°